Location: Gaast
(52.9002°N, 5.8891°E)
Time: 23:31:16
(UTC+00:00)

Cosmos 1802 Rocket - Pass Details

Date: 18 November 2025
Orbit: 953 x 1011 km, 82.9° (Epoch: 04 December)

Event Time Altitude Azimuth Distance (km) Brightness Sun altitude
Rises 16:10:10 0° 183° (S) 3,731 7.5 -5.2°
Reaches altitude 10° 16:12:41 10° 182° (S) 2,786 6.8 -5.5°
Maximum altitude 16:19:06 79° 97° (E) 1,033 4.1 -6.4°
Drops below altitude 10° 16:25:32 10° 12° (NNE) 2,789 6.1 -7.3°
Sets 16:28:04 0° 12° (NNE) 3,737 6.7 -7.6°
